Flag for Germany Weather past 2 weeks in Neunkirchen (Saar), Saarland, Germany

Now
57 °F

Scattered clouds.


Feels Like: 57 °F
Forecast: 43 / 68 °F
Wind: 5 mph from Southeast

Location: Saarbruecken / Ensheim


UV Index: 3 (Moderate)

Visibility: N/A


Pressure: 29.65 "Hg

Humidity: 59%

Dew point: 43 °F

Location of Neunkirchen (Saar)Location

Historic Weather in Neunkirchen (Saar)

°F

Neunkirchen (Saar) temperature yesterday

Maximum temperature yesterday: 63 °F (at 12:50 PM)
Minimum temperature yesterday: 46 °F (at 3:50 AM)
Average temperature yesterday: 55 °F

Past Weeks' High & Low Weather Summary

 TemperatureHumidityPressure
High70 °F (Apr 7, 5:20 PM)93% (Apr 7, 6:50 AM)30.39 "Hg (Apr 7, 6:50 AM)
Low34 °F (Apr 9, 6:50 AM)22% (Apr 17, 5:20 PM)29.62 "Hg (Apr 21, 5:50 AM)
Average51 °F61%30.06 "Hg
* Reported Apr 6 10:20 AM — Apr 21 10:50 AM, Neunkirchen (Saar), Weather by CustomWeather, © 2014

Note: Actual official high and low records may vary slightly from our data, if they occured in-between our weather recording intervals... More about our weather records

Advertising

Historic Weather Conditions — Data for Previous 24 hours

 ConditionsComfort  
Time TempWeatherWind HumidityBarometerVisibility
10:50 AM
Apr 21
59 °FScattered clouds.3 mph59%29.65 "HgN/A
10:20 AM57 °FSunny.3 mph59%29.65 "Hg10 mi
9:50 AM55 °FSunny.3 mph63%29.65 "Hg10 mi
9:20 AM54 °FSunny.5 mph63%29.65 "Hg10 mi
8:50 AM52 °FSunny.6 mph67%29.65 "Hg10 mi
8:20 AM50 °FSunny.3 mph71%29.65 "Hg10 mi
7:50 AM48 °FSunny.2 mph76%29.65 "Hg10 mi
7:20 AM46 °FClear.2 mph82%29.65 "Hg10 mi
6:50 AM45 °FClear.5 mph81%29.65 "Hg10 mi
6:20 AM45 °FClear.7 mph81%29.62 "Hg10 mi
5:50 AM46 °FClear.7 mph76%29.62 "Hg10 mi
5:20 AM48 °FClear.9 mph71%29.65 "Hg10 mi
4:50 AM48 °FClear.8 mph71%29.65 "Hg10 mi
4:20 AM48 °FClear.10 mph76%29.65 "Hg10 mi
3:50 AM48 °FClear.8 mph76%29.65 "Hg10 mi
3:20 AM48 °FClear.8 mph76%29.65 "Hg10 mi
2:50 AM50 °FClear.8 mph71%29.65 "Hg10 mi
2:20 AM52 °FClear.7 mph67%29.65 "Hg10 mi
1:50 AM54 °FClear.8 mph63%29.65 "Hg10 mi
1:20 AM54 °FClear.9 mph63%29.65 "Hg10 mi
12:50 AM54 °FClear.7 mph67%29.68 "Hg10 mi
12:20 AM55 °FLight rain. Clear.8 mph63%29.68 "HgN/A
11:50 PM
Apr 20
54 °FLight rain. Clear.7 mph72%29.68 "HgN/A
11:20 PM54 °FLight rain. Clear.1 mph77%29.68 "HgN/A
10:50 PM54 °FLight rain. Clear.1 mph77%29.68 "HgN/A
10:20 PM54 °FLight rain. Clear.1 mph77%29.68 "HgN/A
9:50 PM55 °FClear.1 mph72%29.68 "Hg10 mi
9:20 PM55 °FSunny.2 mph72%29.68 "Hg10 mi
8:50 PM55 °FSunny.3 mph72%29.65 "Hg10 mi
8:20 PM57 °FPartly sunny.1 mph63%29.65 "HgN/A
7:50 PM57 °FPartly sunny.2 mph63%29.65 "HgN/A
7:20 PM59 °FPartly sunny.3 mph59%29.65 "HgN/A
6:50 PM59 °FPartly sunny.3 mph59%29.65 "HgN/A
6:20 PM61 °FPartly sunny.5 mph55%29.65 "HgN/A
5:50 PM61 °FBroken clouds.5 mph59%29.65 "HgN/A
5:20 PM61 °FBroken clouds.5 mph55%29.65 "HgN/A
4:50 PM61 °FBroken clouds.5 mph55%29.65 "HgN/A
4:20 PM61 °FBroken clouds.7 mph55%29.65 "HgN/A
3:50 PM61 °FBroken clouds.5 mph55%29.68 "HgN/A
3:20 PM59 °FBroken clouds.6 mph59%29.68 "HgN/A
2:50 PM59 °FBroken clouds.5 mph59%29.68 "HgN/A
2:20 PM59 °FBroken clouds.5 mph59%29.68 "HgN/A
1:50 PM61 °FBroken clouds.7 mph59%29.68 "HgN/A
1:20 PM61 °FBroken clouds.3 mph59%29.68 "HgN/A
12:50 PM63 °FScattered clouds.6 mph56%29.68 "HgN/A
12:20 PM61 °FScattered clouds.5 mph59%29.68 "HgN/A
11:50 AM61 °FScattered clouds.7 mph59%29.68 "HgN/A
11:20 AM59 °FBroken clouds.6 mph63%29.71 "HgN/A
Weather by CustomWeather, © 2014

See weather overview